Time,TemperatureF,DewpointF,PressureIn,WindDirection,WindDirectionDegrees,WindSpeedMPH,WindSpeedGustMPH,Humidity,HourlyPrecipIn,Conditions,Clouds,dailyrainin,SoftwareType,DateUTC
2013-12-17 00:04:00,39.3,13.3,26.13,WSW,244,3.1,4.0,34,0.00,,---,0.00,VWS V12.07,2013-12-17 07:04:00,
2013-12-17 00:05:00,39.3,13.3,26.13,WSW,244,3.1,4.0,34,0.00,,---,0.00,VWS V12.07,2013-12-17 07:05:00,
2013-12-17 00:14:00,39.6,13.6,26.13,WSW,247,2.7,5.8,34,0.00,,---,0.00,VWS V12.07,2013-12-17 07:14:00,
2013-12-17 00:24:00,39.4,13.4,26.13,North,357,3.6,6.3,34,0.00,,---,0.00,VWS V12.07,2013-12-17 07:24:00,
2013-12-17 00:25:00,39.4,13.4,26.13,North,357,3.1,6.3,34,0.00,,---,0.00,VWS V12.07,2013-12-17 07:25:00,
2013-12-17 00:34:00,39.8,13.7,26.13,North,357,4.9,6.3,34,0.00,,---,0.00,VWS V12.07,2013-12-17 07:34:00,
2013-12-17 00:35:00,39.8,13.7,26.13,North,357,3.6,6.3,34,0.00,,---,0.00,VWS V12.07,2013-12-17 07:35:00,
2013-12-17 00:44:00,39.8,13.1,26.13,North,357,2.7,4.0,33,0.00,,---,0.00,VWS V12.07,2013-12-17 07:44:00,
2013-12-17 00:45:00,39.8,13.1,26.13,North,357,2.2,4.0,33,0.00,,---,0.00,VWS V12.07,2013-12-17 07:45:00,
2013-12-17 00:54:00,40.0,13.2,26.13,North,357,2.7,5.4,33,0.00,,---,0.00,VWS V12.07,2013-12-17 07:54:00,
2013-12-17 01:04:00,39.6,12.9,26.13,North,1,2.7,5.4,33,0.00,,---,0.00,VWS V12.07,2013-12-17 08:04:00,
2013-12-17 01:05:00,39.6,12.9,26.13,North,1,4.9,5.4,33,0.00,,---,0.00,VWS V12.07,2013-12-17 08:05:00,
2013-12-17 01:14:00,39.3,13.3,26.13,North,6,0.0,7.2,34,0.00,,---,0.00,VWS V12.07,2013-12-17 08:14:00,
2013-12-17 01:15:00,39.3,13.3,26.13,North,6,2.2,7.2,34,0.00,,---,0.00,VWS V12.07,2013-12-17 08:15:00,
2013-12-17 01:24:00,39.3,13.3,26.13,North,4,0.0,4.0,34,0.00,,---,0.00,VWS V12.07,2013-12-17 08:24:00,
2013-12-17 01:25:00,39.3,13.3,26.13,North,4,2.7,4.0,34,0.00,,---,0.00,VWS V12.07,2013-12-17 08:25:00,
2013-12-17 01:34:00,38.5,13.9,26.13,North,4,0.0,5.4,36,0.00,,---,0.00,VWS V12.07,2013-12-17 08:34:00,
2013-12-17 01:35:00,38.4,13.8,26.13,North,4,0.0,5.4,36,0.00,,---,0.00,VWS V12.07,2013-12-17 08:35:00,
2013-12-17 01:44:00,37.6,15.5,26.13,NNW,329,3.1,6.3,40,0.00,,---,0.00,VWS V12.07,2013-12-17 08:44:00,
2013-12-17 01:45:00,37.6,14.9,26.13,NW,313,3.6,6.3,39,0.00,,---,0.00,VWS V12.07,2013-12-17 08:45:00,
2013-12-17 01:54:00,37.5,15.4,26.13,NW,322,0.0,6.3,40,0.00,,---,0.00,VWS V12.07,2013-12-17 08:54:00,
2013-12-17 01:55:00,37.5,15.4,26.13,NW,322,0.0,6.3,40,0.00,,---,0.00,VWS V12.07,2013-12-17 08:55:00,
2013-12-17 02:04:00,37.5,15.4,26.13,NW,322,0.0,4.9,40,0.00,,---,0.00,VWS V12.07,2013-12-17 09:04:00,
2013-12-17 02:05:00,37.5,15.4,26.13,NW,322,3.1,4.9,40,0.00,,---,0.00,VWS V12.07,2013-12-17 09:05:00,
2013-12-17 02:14:00,37.5,15.4,26.13,NW,322,0.0,4.9,40,0.00,,---,0.00,VWS V12.07,2013-12-17 09:14:00,
2013-12-17 02:24:00,37.5,15.4,26.13,NW,321,0.0,4.0,40,0.00,,---,0.00,VWS V12.07,2013-12-17 09:24:00,
2013-12-17 02:34:00,37.6,14.9,26.13,NW,321,0.0,4.0,39,0.00,,---,0.00,VWS V12.07,2013-12-17 09:34:00,
2013-12-17 02:35:00,37.6,14.9,26.13,NW,321,0.0,4.0,39,0.00,,---,0.00,VWS V12.07,2013-12-17 09:35:00,
2013-12-17 02:44:00,37.5,14.8,26.13,NW,321,0.0,0.0,39,0.00,,---,0.00,VWS V12.07,2013-12-17 09:44:00,
2013-12-17 02:45:00,37.3,14.6,26.13,NW,321,0.0,0.0,39,0.00,,---,0.00,VWS V12.07,2013-12-17 09:45:00,
2013-12-17 02:54:00,36.6,14.0,26.13,NW,321,0.0,3.6,39,0.00,,---,0.00,VWS V12.07,2013-12-17 09:54:00,
2013-12-17 02:55:00,36.6,14.0,26.13,NW,321,0.0,3.6,39,0.00,,---,0.00,VWS V12.07,2013-12-17 09:55:00,
2013-12-17 03:04:00,36.6,14.0,26.13,NW,321,3.1,3.6,39,0.00,,---,0.00,VWS V12.07,2013-12-17 10:04:00,
2013-12-17 03:14:00,36.6,14.0,26.13,East,79,5.4,5.8,39,0.00,,---,0.00,VWS V12.07,2013-12-17 10:14:00,
2013-12-17 03:15:00,36.6,14.0,26.13,East,79,2.7,5.8,39,0.00,,---,0.00,VWS V12.07,2013-12-17 10:15:00,
2013-12-17 03:24:00,36.6,14.0,26.13,North,353,2.7,4.0,39,0.00,,---,0.00,VWS V12.07,2013-12-17 10:24:00,
2013-12-17 03:25:00,36.6,14.0,26.13,North,353,4.9,4.9,39,0.00,,---,0.00,VWS V12.07,2013-12-17 10:25:00,
2013-12-17 03:34:00,36.7,14.1,26.13,NNW,340,3.6,6.7,39,0.00,,---,0.00,VWS V12.07,2013-12-17 10:34:00,
2013-12-17 03:35:00,36.7,14.1,26.13,NNW,339,5.4,6.7,39,0.00,,---,0.00,VWS V12.07,2013-12-17 10:35:00,
2013-12-17 03:44:00,36.6,14.0,26.13,NNW,340,0.0,4.0,39,0.00,,---,0.00,VWS V12.07,2013-12-17 10:44:00,
2013-12-17 03:45:00,36.6,14.0,26.13,NNW,340,0.0,4.0,39,0.00,,---,0.00,VWS V12.07,2013-12-17 10:45:00,
2013-12-17 03:54:00,36.2,13.6,26.13,NNW,328,0.0,6.3,39,0.00,,---,0.00,VWS V12.07,2013-12-17 10:54:00,
2013-12-17 03:55:00,36.4,13.8,26.13,NNW,328,0.0,6.3,39,0.00,,---,0.00,VWS V12.07,2013-12-17 10:55:00,
2013-12-17 04:04:00,36.2,14.2,26.13,East,79,3.6,5.8,40,0.00,,---,0.00,VWS V12.07,2013-12-17 11:04:00,
2013-12-17 04:14:00,36.7,14.1,26.13,North,4,5.4,8.7,39,0.00,,---,0.00,VWS V12.07,2013-12-17 11:14:00,
2013-12-17 04:15:00,36.7,14.1,26.13,North,9,6.3,8.7,39,0.00,,---,0.00,VWS V12.07,2013-12-17 11:15:00,
2013-12-17 04:24:00,36.2,13.6,26.13,NNE,13,5.4,7.6,39,0.00,,---,0.00,VWS V12.07,2013-12-17 11:24:00,
2013-12-17 04:34:00,35.5,14.1,26.10,North,9,0.0,8.3,41,0.00,,---,0.00,VWS V12.07,2013-12-17 11:34:00,
2013-12-17 04:35:00,35.5,14.1,26.10,North,9,0.0,8.3,41,0.00,,---,0.00,VWS V12.07,2013-12-17 11:35:00,
2013-12-17 04:44:00,35.7,13.7,26.10,NNE,28,3.1,5.8,40,0.00,,---,0.00,VWS V12.07,2013-12-17 11:44:00,
2013-12-17 04:45:00,35.7,13.7,26.10,NNE,29,2.2,5.8,40,0.00,,---,0.00,VWS V12.07,2013-12-17 11:45:00,
2013-12-17 04:54:00,35.5,13.6,26.10,North,4,5.8,7.6,40,0.00,,---,0.00,VWS V12.07,2013-12-17 11:54:00,
2013-12-17 04:55:00,35.5,13.6,26.10,North,2,7.2,7.6,40,0.00,,---,0.00,VWS V12.07,2013-12-17 11:55:00,
2013-12-17 05:04:00,35.8,13.9,26.10,North,353,5.4,7.6,40,0.00,,---,0.00,VWS V12.07,2013-12-17 12:04:00,
2013-12-17 05:14:00,36.0,14.1,26.10,North,1,2.2,8.3,40,0.00,,---,0.00,VWS V12.07,2013-12-17 12:14:00,
2013-12-17 05:15:00,36.0,14.1,26.10,North,1,4.9,8.3,40,0.00,,---,0.00,VWS V12.07,2013-12-17 12:15:00,
2013-12-17 05:24:00,35.5,13.6,26.10,North,0,4.0,5.8,40,0.00,,---,0.00,VWS V12.07,2013-12-17 12:24:00,
2013-12-17 05:34:00,35.7,13.7,26.10,North,357,5.4,6.7,40,0.00,,---,0.00,VWS V12.07,2013-12-17 12:34:00,
2013-12-17 05:44:00,35.5,14.1,26.10,North,357,0.0,5.4,41,0.00,,---,0.00,VWS V12.07,2013-12-17 12:44:00,
2013-12-17 05:45:00,35.5,14.1,26.10,North,357,2.7,5.4,41,0.00,,---,0.00,VWS V12.07,2013-12-17 12:45:00,
2013-12-17 05:54:00,35.5,14.1,26.13,NNW,343,4.0,7.2,41,0.00,,---,0.00,VWS V12.07,2013-12-17 12:54:00,
2013-12-17 06:02:00,35.3,14.0,26.13,NNW,341,3.6,5.8,41,0.00,,---,0.00,VWS V12.07,2013-12-17 13:02:00,
2013-12-17 06:05:00,35.1,13.8,26.13,NNW,339,3.1,5.8,41,0.00,,---,0.00,VWS V12.07,2013-12-17 13:05:00,
2013-12-17 06:14:00,34.6,13.3,26.13,NNW,335,3.1,7.6,41,0.00,,---,0.00,VWS V12.07,2013-12-17 13:14:00,
2013-12-17 06:24:00,34.4,13.7,26.13,NNW,343,4.0,6.3,42,0.00,,---,0.00,VWS V12.07,2013-12-17 13:24:00,
2013-12-17 06:25:00,34.2,13.5,26.13,North,350,5.4,6.3,42,0.00,,---,0.00,VWS V12.07,2013-12-17 13:25:00,
2013-12-17 06:34:00,34.4,13.1,26.13,NNW,341,5.8,9.6,41,0.00,,---,0.00,VWS V12.07,2013-12-17 13:34:00,
2013-12-17 06:44:00,34.2,13.5,26.13,NNW,344,3.6,8.3,42,0.00,,---,0.00,VWS V12.07,2013-12-17 13:44:00,
2013-12-17 06:45:00,34.2,13.5,26.13,NNW,348,5.4,8.3,42,0.00,,---,0.00,VWS V12.07,2013-12-17 13:45:00,
2013-12-17 06:54:00,34.4,13.1,26.13,North,0,5.8,8.3,41,0.00,,---,0.00,VWS V12.07,2013-12-17 13:54:00,
2013-12-17 07:05:00,34.6,13.3,26.13,North,353,0.0,0.0,41,0.00,,---,0.00,VWS V12.07,2013-12-17 14:05:00,
2013-12-17 07:14:00,34.8,13.5,26.13,North,353,0.0,3.6,41,0.00,,---,0.00,VWS V12.07,2013-12-17 14:14:00,
2013-12-17 07:24:00,34.8,13.5,26.16,NNW,344,2.7,4.9,41,0.00,,---,0.00,VWS V12.07,2013-12-17 14:24:00,
2013-12-17 07:34:00,35.3,14.0,26.16,NNW,344,0.0,4.9,41,0.00,,---,0.00,VWS V12.07,2013-12-17 14:34:00,
2013-12-17 07:44:00,36.0,14.6,26.16,NNW,344,0.0,0.0,41,0.00,,---,0.00,VWS V12.07,2013-12-17 14:44:00,
2013-12-17 07:45:00,36.0,14.1,26.16,NNW,344,0.0,0.0,40,0.00,,---,0.00,VWS V12.07,2013-12-17 14:45:00,
2013-12-17 07:54:00,37.1,14.4,26.16,NNW,344,3.1,4.0,39,0.00,,---,0.00,VWS V12.07,2013-12-17 14:54:00,
2013-12-17 07:55:00,37.1,14.4,26.16,NNW,344,2.7,4.0,39,0.00,,---,0.00,VWS V12.07,2013-12-17 14:55:00,
2013-12-17 08:00:00,37.6,13.7,26.16,NNW,342,2.7,4.0,37,0.00,,---,0.00,VWS V12.07,2013-12-17 15:00:00,
2013-12-17 08:14:00,39.3,12.6,26.16,NW,316,6.3,11.0,33,0.00,,---,0.00,VWS V12.07,2013-12-17 15:14:00,
2013-12-17 08:15:00,39.3,12.6,26.16,NNW,343,5.8,11.0,33,0.00,,---,0.00,VWS V12.07,2013-12-17 15:15:00,
2013-12-17 08:25:00,40.3,12.1,26.16,NNW,342,5.8,10.1,31,0.00,,---,0.00,VWS V12.07,2013-12-17 15:25:00,
2013-12-17 08:34:00,41.6,12.5,26.16,NW,323,5.8,12.8,30,0.00,,---,0.00,VWS V12.07,2013-12-17 15:34:00,
2013-12-17 08:35:00,41.8,12.6,26.16,NNW,327,5.4,12.8,30,0.00,,---,0.00,VWS V12.07,2013-12-17 15:35:00,
2013-12-17 08:44:00,43.0,13.0,26.16,North,0,4.0,8.7,29,0.00,,---,0.00,VWS V12.07,2013-12-17 15:44:00,
2013-12-17 08:45:00,43.0,13.0,26.16,NW,311,11.4,11.4,29,0.00,,---,0.00,VWS V12.07,2013-12-17 15:45:00,
2013-12-17 08:54:00,43.9,12.9,26.16,NNE,29,8.3,11.4,28,0.00,,---,0.00,VWS V12.07,2013-12-17 15:54:00,
2013-12-17 09:04:00,45.0,13.9,26.16,North,2,4.9,7.6,28,0.00,,---,0.00,VWS V12.07,2013-12-17 16:04:00,
2013-12-17 09:05:00,45.0,13.9,26.16,NE,37,4.0,7.6,28,0.00,,---,0.00,VWS V12.07,2013-12-17 16:05:00,
2013-12-17 09:14:00,45.9,13.8,26.16,ENE,63,4.9,8.1,27,0.00,,---,0.00,VWS V12.07,2013-12-17 16:14:00,
2013-12-17 09:15:00,45.9,13.8,26.16,ENE,63,0.0,8.1,27,0.00,,---,0.00,VWS V12.07,2013-12-17 16:15:00,
2013-12-17 09:24:00,46.8,14.6,26.19,North,5,4.0,5.8,27,0.00,,---,0.00,VWS V12.07,2013-12-17 16:24:00,
2013-12-17 09:34:00,47.5,14.4,26.19,North,11,6.3,10.1,26,0.00,,---,0.00,VWS V12.07,2013-12-17 16:34:00,
2013-12-17 09:35:00,47.5,14.4,26.19,North,357,6.3,10.1,26,0.00,,---,0.00,VWS V12.07,2013-12-17 16:35:00,
2013-12-17 09:44:00,48.4,15.1,26.19,NNE,17,6.3,9.6,26,0.00,,---,0.00,VWS V12.07,2013-12-17 16:44:00,
2013-12-17 09:45:00,48.4,15.1,26.19,NNW,329,6.3,9.6,26,0.00,,---,0.00,VWS V12.07,2013-12-17 16:45:00,
2013-12-17 09:54:00,49.2,13.0,26.19,North,357,5.4,10.1,23,0.00,,---,0.00,VWS V12.07,2013-12-17 16:54:00,
2013-12-17 09:55:00,49.2,13.0,26.19,North,10,8.7,10.1,23,0.00,,---,0.00,VWS V12.07,2013-12-17 16:55:00,
2013-12-17 10:04:00,50.4,14.0,26.19,North,4,5.4,8.3,23,0.00,,---,0.00,VWS V12.07,2013-12-17 17:04:00,
2013-12-17 10:05:00,50.6,14.2,26.19,NW,319,5.4,8.3,23,0.00,,---,0.00,VWS V12.07,2013-12-17 17:05:00,
2013-12-17 10:14:00,51.0,11.3,26.19,North,0,6.3,11.0,20,0.00,,---,0.00,VWS V12.07,2013-12-17 17:14:00,
2013-12-17 10:15:00,51.0,11.3,26.19,NNW,343,5.8,11.0,20,0.00,,---,0.00,VWS V12.07,2013-12-17 17:15:00,
2013-12-17 10:25:00,51.9,12.1,26.19,NNE,16,5.8,8.7,20,0.00,,---,0.00,VWS V12.07,2013-12-17 17:25:00,
2013-12-17 10:34:00,52.6,12.7,26.19,NW,320,6.3,10.5,20,0.00,,---,0.00,VWS V12.07,2013-12-17 17:34:00,
2013-12-17 10:35:00,52.6,12.7,26.19,NNW,342,8.1,10.5,20,0.00,,---,0.00,VWS V12.07,2013-12-17 17:35:00,
2013-12-17 10:44:00,53.3,13.3,26.19,NW,315,6.3,8.3,20,0.00,,---,0.00,VWS V12.07,2013-12-17 17:44:00,
2013-12-17 10:55:00,54.0,10.2,26.19,NNW,333,6.3,11.0,17,0.00,,---,0.00,VWS V12.07,2013-12-17 17:55:00,
2013-12-17 11:04:00,54.7,10.8,26.16,North,11,4.0,9.2,17,0.00,,---,0.00,VWS V12.07,2013-12-17 18:04:00,
2013-12-17 11:14:00,54.9,10.9,26.16,NW,324,5.8,9.2,17,0.00,,---,0.00,VWS V12.07,2013-12-17 18:14:00,
2013-12-17 11:15:00,54.9,10.9,26.16,NNW,330,4.5,9.2,17,0.00,,---,0.00,VWS V12.07,2013-12-17 18:15:00,
2013-12-17 11:24:00,55.3,11.2,26.16,North,8,3.1,7.6,17,0.00,,---,0.00,VWS V12.07,2013-12-17 18:24:00,
2013-12-17 11:25:00,55.3,11.2,26.16,North,9,5.8,7.6,17,0.00,,---,0.00,VWS V12.07,2013-12-17 18:25:00,
2013-12-17 11:32:00,55.8,11.7,26.16,North,8,3.6,8.1,17,0.00,,---,0.00,VWS V12.07,2013-12-17 18:32:00,
2013-12-17 11:35:00,55.8,11.7,26.16,NNE,13,5.8,8.1,17,0.00,,---,0.00,VWS V12.07,2013-12-17 18:35:00,
2013-12-17 11:44:00,56.2,12.0,26.16,NW,304,4.0,8.1,17,0.00,,---,0.00,VWS V12.07,2013-12-17 18:44:00,
2013-12-17 11:45:00,56.2,12.0,26.16,NW,313,3.6,8.1,17,0.00,,---,0.00,VWS V12.07,2013-12-17 18:45:00,
2013-12-17 11:54:00,56.7,12.4,26.13,North,357,7.2,8.1,17,0.00,,---,0.00,VWS V12.07,2013-12-17 18:54:00,
2013-12-17 11:55:00,56.7,12.4,26.13,North,3,2.2,8.1,17,0.00,,---,0.00,VWS V12.07,2013-12-17 18:55:00,
2013-12-17 12:05:00,57.4,13.0,26.13,NE,47,4.9,8.7,17,0.00,,---,0.00,VWS V12.07,2013-12-17 19:05:00,
2013-12-17 12:14:00,58.3,12.4,26.13,North,353,4.0,10.5,16,0.00,,---,0.00,VWS V12.07,2013-12-17 19:14:00,
2013-12-17 12:15:00,58.3,12.4,26.13,North,353,3.1,10.5,16,0.00,,---,0.00,VWS V12.07,2013-12-17 19:15:00,
2013-12-17 12:24:00,59.2,13.1,26.13,North,5,5.4,8.1,16,0.00,,---,0.00,VWS V12.07,2013-12-17 19:24:00,
2013-12-17 12:35:00,63.2,14.8,26.10,NNW,327,5.8,8.1,15,0.00,,---,0.00,VWS V12.07,2013-12-17 19:35:00,
2013-12-17 12:44:00,68.2,13.7,26.10,NW,320,3.1,9.2,12,0.00,,---,0.00,VWS V12.07,2013-12-17 19:44:00,
2013-12-17 12:45:00,68.2,13.7,26.10,NNW,346,4.0,9.2,12,0.00,,---,0.00,VWS V12.07,2013-12-17 19:45:00,
2013-12-17 12:51:00,69.3,12.6,26.10,North,357,6.7,9.2,11,0.00,,---,0.00,VWS V12.07,2013-12-17 19:51:00,
2013-12-17 12:55:00,70.8,13.7,26.10,North,2,3.1,9.2,11,0.00,,---,0.00,VWS V12.07,2013-12-17 19:55:00,
2013-12-17 13:04:00,73.8,13.9,26.10,NW,321,0.0,8.1,10,0.00,,---,0.00,VWS V12.07,2013-12-17 20:04:00,
2013-12-17 13:05:00,73.8,13.9,26.10,NW,321,0.0,8.1,10,0.00,,---,0.00,VWS V12.07,2013-12-17 20:05:00,
2013-12-17 13:14:00,72.2,12.6,26.10,NE,45,3.1,8.1,10,0.00,,---,0.00,VWS V12.07,2013-12-17 20:14:00,
2013-12-17 13:25:00,69.9,13.0,26.10,NE,54,4.9,4.9,11,0.00,,---,0.00,VWS V12.07,2013-12-17 20:25:00,
2013-12-17 13:34:00,72.4,12.8,26.07,North,353,5.4,6.3,10,0.00,,---,0.00,VWS V12.07,2013-12-17 20:34:00,
2013-12-17 13:35:00,72.0,14.7,26.07,North,0,3.1,6.3,11,0.00,,---,0.00,VWS V12.07,2013-12-17 20:35:00,
2013-12-17 13:44:00,74.0,14.0,26.07,NNE,23,0.0,5.4,10,0.00,,---,0.00,VWS V12.07,2013-12-17 20:44:00,
2013-12-17 13:45:00,74.0,14.0,26.07,NNE,23,2.2,5.4,10,0.00,,---,0.00,VWS V12.07,2013-12-17 20:45:00,
2013-12-17 13:55:00,73.3,13.5,26.07,North,11,2.2,6.3,10,0.00,,---,0.00,VWS V12.07,2013-12-17 20:55:00,
2013-12-17 14:04:00,77.1,16.4,26.07,NNE,12,0.0,0.0,10,0.00,,---,0.00,VWS V12.07,2013-12-17 21:04:00,
2013-12-17 14:14:00,77.8,14.5,26.07,NNW,348,4.0,6.3,9,0.00,,---,0.00,VWS V12.07,2013-12-17 21:14:00,
2013-12-17 14:15:00,77.2,16.5,26.07,North,353,4.0,6.3,10,0.00,,---,0.00,VWS V12.07,2013-12-17 21:15:00,
2013-12-17 14:25:00,77.6,14.4,26.07,ENE,75,2.7,5.8,9,0.00,,---,0.00,VWS V12.07,2013-12-17 21:25:00,
2013-12-17 14:35:00,78.5,15.0,26.07,North,7,0.0,7.6,9,0.00,,---,0.00,VWS V12.07,2013-12-17 21:35:00,
2013-12-17 14:44:00,77.1,16.4,26.07,NNE,23,0.0,0.0,10,0.00,,---,0.00,VWS V12.07,2013-12-17 21:44:00,
2013-12-17 14:45:00,77.4,16.6,26.07,NNE,23,0.0,0.0,10,0.00,,---,0.00,VWS V12.07,2013-12-17 21:45:00,
2013-12-17 14:54:00,78.5,15.0,26.07,NNE,23,3.6,3.6,9,0.00,,---,0.00,VWS V12.07,2013-12-17 21:54:00,
2013-12-17 15:04:00,79.8,16.0,26.07,NNE,16,0.0,0.0,9,0.00,,---,0.00,VWS V12.07,2013-12-17 22:04:00,
2013-12-17 15:05:00,79.9,16.1,26.07,NNE,16,0.0,0.0,9,0.00,,---,0.00,VWS V12.07,2013-12-17 22:05:00,
2013-12-17 15:12:00,76.3,15.8,26.07,North,357,0.0,4.0,10,0.00,,---,0.00,VWS V12.07,2013-12-17 22:12:00,
2013-12-17 15:15:00,74.9,14.7,26.07,North,0,3.6,4.0,10,0.00,,---,0.00,VWS V12.07,2013-12-17 22:15:00,
2013-12-17 15:25:00,67.7,13.3,26.07,North,9,4.0,4.0,12,0.00,,---,0.00,VWS V12.07,2013-12-17 22:25:00,
2013-12-17 15:34:00,64.8,11.0,26.07,NNE,12,2.2,4.0,12,0.00,,---,0.00,VWS V12.07,2013-12-17 22:34:00,
2013-12-17 15:35:00,64.6,10.9,26.07,NNE,12,2.2,4.0,12,0.00,,---,0.00,VWS V12.07,2013-12-17 22:35:00,
2013-12-17 15:44:00,64.1,10.5,26.07,NNE,13,0.0,3.1,12,0.00,,---,0.00,VWS V12.07,2013-12-17 22:44:00,
2013-12-17 15:45:00,64.1,10.5,26.07,NNE,13,0.0,3.1,12,0.00,,---,0.00,VWS V12.07,2013-12-17 22:45:00,
2013-12-17 15:54:00,63.0,11.4,26.07,NNE,13,0.0,3.1,13,0.00,,---,0.00,VWS V12.07,2013-12-17 22:54:00,
2013-12-17 16:05:00,62.8,11.3,26.07,NNE,13,2.7,4.0,13,0.00,,---,0.00,VWS V12.07,2013-12-17 23:05:00,
2013-12-17 16:14:00,62.1,10.7,26.07,NNE,13,0.0,4.0,13,0.00,,---,0.00,VWS V12.07,2013-12-17 23:14:00,
2013-12-17 16:15:00,61.9,10.6,26.07,NNE,13,0.0,4.0,13,0.00,,---,0.00,VWS V12.07,2013-12-17 23:15:00,
2013-12-17 16:24:00,61.2,10.0,26.07,NNE,13,0.0,0.0,13,0.00,,---,0.00,VWS V12.07,2013-12-17 23:24:00,
2013-12-17 16:25:00,61.2,10.0,26.07,NNE,13,0.0,0.0,13,0.00,,---,0.00,VWS V12.07,2013-12-17 23:25:00,
2013-12-17 16:34:00,60.9,9.7,26.07,NNE,13,0.0,0.0,13,0.00,,---,0.00,VWS V12.07,2013-12-17 23:34:00,
2013-12-17 16:35:00,60.9,9.7,26.07,NNE,13,0.0,0.0,13,0.00,,---,0.00,VWS V12.07,2013-12-17 23:35:00,
2013-12-17 16:44:00,60.5,9.4,26.07,NNE,14,0.0,0.0,13,0.00,,---,0.00,VWS V12.07,2013-12-17 23:44:00,
2013-12-17 16:54:00,59.4,10.2,26.07,NNE,13,0.0,0.0,14,0.00,,---,0.00,VWS V12.07,2013-12-17 23:54:00,
2013-12-17 17:04:00,58.7,9.6,26.07,NNE,13,0.0,0.0,14,0.00,,---,0.00,VWS V12.07,2013-12-18 00:04:00,
2013-12-17 17:05:00,58.5,9.5,26.07,NNE,13,0.0,0.0,14,0.00,,---,0.00,VWS V12.07,2013-12-18 00:05:00,
2013-12-17 17:14:00,57.1,8.4,26.07,NNE,14,0.0,0.0,14,0.00,,---,0.00,VWS V12.07,2013-12-18 00:14:00,
2013-12-17 17:15:00,57.1,8.4,26.07,NNE,13,0.0,0.0,14,0.00,,---,0.00,VWS V12.07,2013-12-18 00:15:00,
2013-12-17 17:24:00,56.0,7.5,26.07,NNE,13,0.0,0.0,14,0.00,,---,0.00,VWS V12.07,2013-12-18 00:24:00,
2013-12-17 17:25:00,56.0,7.5,26.07,NNE,13,0.0,0.0,14,0.00,,---,0.00,VWS V12.07,2013-12-18 00:25:00,
2013-12-17 17:34:00,54.9,6.6,26.07,NNE,13,0.0,0.0,14,0.00,,---,0.00,VWS V12.07,2013-12-18 00:34:00,
2013-12-17 17:44:00,53.8,7.3,26.07,NNE,13,0.0,0.0,15,0.00,,---,0.00,VWS V12.07,2013-12-18 00:44:00,
2013-12-17 17:45:00,53.8,7.3,26.07,NNE,13,0.0,0.0,15,0.00,,---,0.00,VWS V12.07,2013-12-18 00:45:00,
2013-12-17 17:54:00,53.3,6.8,26.07,NNE,13,0.0,0.0,15,0.00,,---,0.00,VWS V12.07,2013-12-18 00:54:00,
2013-12-17 17:55:00,53.1,6.7,26.07,NNE,14,0.0,0.0,15,0.00,,---,0.00,VWS V12.07,2013-12-18 00:55:00,
2013-12-17 18:04:00,52.6,6.3,26.07,North,7,3.1,4.0,15,0.00,,---,0.00,VWS V12.07,2013-12-18 01:04:00,
2013-12-17 18:05:00,52.6,6.3,26.07,North,7,0.0,4.0,15,0.00,,---,0.00,VWS V12.07,2013-12-18 01:05:00,
2013-12-17 18:14:00,52.0,5.8,26.07,NW,317,4.0,4.0,15,0.00,,---,0.00,VWS V12.07,2013-12-18 01:14:00,
2013-12-17 18:15:00,52.0,5.8,26.07,NW,314,5.4,5.4,15,0.00,,---,0.00,VWS V12.07,2013-12-18 01:15:00,
2013-12-17 18:25:00,51.5,5.4,26.07,NW,308,2.2,4.9,15,0.00,,---,0.00,VWS V12.07,2013-12-18 01:25:00,
2013-12-17 18:34:00,51.0,5.0,26.07,NW,308,2.7,4.9,15,0.00,,---,0.00,VWS V12.07,2013-12-18 01:34:00,
2013-12-17 18:35:00,51.0,5.0,26.07,NW,308,2.7,4.9,15,0.00,,---,0.00,VWS V12.07,2013-12-18 01:35:00,
2013-12-17 18:44:00,50.4,5.9,26.07,NW,308,2.2,4.5,16,0.00,,---,0.00,VWS V12.07,2013-12-18 01:44:00,
2013-12-17 18:45:00,50.4,5.9,26.07,NW,308,2.2,4.5,16,0.00,,---,0.00,VWS V12.07,2013-12-18 01:45:00,
2013-12-17 18:54:00,50.1,5.6,26.10,NW,308,3.1,5.4,16,0.00,,---,0.00,VWS V12.07,2013-12-18 01:54:00,
2013-12-17 18:55:00,50.1,5.6,26.10,NW,307,3.6,5.4,16,0.00,,---,0.00,VWS V12.07,2013-12-18 01:55:00,
2013-12-17 19:04:00,49.5,5.2,26.10,WNW,302,4.0,5.8,16,0.00,,---,0.00,VWS V12.07,2013-12-18 02:04:00,
2013-12-17 19:05:00,49.5,5.2,26.10,WNW,302,0.0,5.8,16,0.00,,---,0.00,VWS V12.07,2013-12-18 02:05:00,
2013-12-17 19:12:00,49.0,4.8,26.10,WNW,302,0.0,5.8,16,0.00,,---,0.00,VWS V12.07,2013-12-18 02:12:00,
2013-12-17 19:15:00,48.8,4.6,26.10,WNW,302,3.6,5.8,16,0.00,,---,0.00,VWS V12.07,2013-12-18 02:15:00,
2013-12-17 19:25:00,48.3,4.2,26.10,WNW,302,0.0,3.6,16,0.00,,---,0.00,VWS V12.07,2013-12-18 02:25:00,
2013-12-17 19:34:00,48.1,4.0,26.10,WNW,302,0.0,3.6,16,0.00,,---,0.00,VWS V12.07,2013-12-18 02:34:00,
2013-12-17 19:35:00,48.1,4.0,26.10,WNW,302,0.0,3.6,16,0.00,,---,0.00,VWS V12.07,2013-12-18 02:35:00,
2013-12-17 19:45:00,47.7,7.5,26.10,WNW,302,2.7,4.0,19,0.00,,---,0.00,VWS V12.07,2013-12-18 02:45:00,
2013-12-17 19:54:00,46.6,2.9,26.10,WNW,302,0.0,4.0,16,0.00,,---,0.00,VWS V12.07,2013-12-18 02:54:00,
2013-12-17 19:55:00,46.6,2.9,26.10,WNW,302,0.0,4.0,16,0.00,,---,0.00,VWS V12.07,2013-12-18 02:55:00,
2013-12-17 20:04:00,46.8,6.7,26.10,WNW,302,0.0,0.0,19,0.00,,---,0.00,VWS V12.07,2013-12-18 03:04:00,
2013-12-17 20:05:00,46.8,6.7,26.10,WNW,302,0.0,0.0,19,0.00,,---,0.00,VWS V12.07,2013-12-18 03:05:00,
2013-12-17 20:14:00,46.6,6.6,26.10,WNW,302,0.0,0.0,19,0.00,,---,0.00,VWS V12.07,2013-12-18 03:14:00,
2013-12-17 20:15:00,46.6,6.6,26.10,WNW,302,0.0,0.0,19,0.00,,---,0.00,VWS V12.07,2013-12-18 03:15:00,
2013-12-17 20:28:00,45.7,5.8,26.10,WNW,302,0.0,0.0,19,0.00,,---,0.00,VWS V12.07,2013-12-18 03:28:00,
2013-12-17 20:34:00,44.8,5.1,26.10,WNW,302,0.0,0.0,19,0.00,,---,0.00,VWS V12.07,2013-12-18 03:34:00,
2013-12-17 20:35:00,44.8,5.1,26.10,WNW,302,0.0,0.0,19,0.00,,---,0.00,VWS V12.07,2013-12-18 03:35:00,
2013-12-17 20:44:00,45.2,5.4,26.10,WNW,302,0.0,0.0,19,0.00,,---,0.00,VWS V12.07,2013-12-18 03:44:00,
2013-12-17 20:45:00,45.2,5.4,26.10,WNW,302,0.0,0.0,19,0.00,,---,0.00,VWS V12.07,2013-12-18 03:45:00,
2013-12-17 20:54:00,44.1,4.5,26.10,WNW,302,0.0,0.0,19,0.00,,---,0.00,VWS V12.07,2013-12-18 03:54:00,
2013-12-17 20:55:00,44.1,4.5,26.10,WNW,302,0.0,0.0,19,0.00,,---,0.00,VWS V12.07,2013-12-18 03:55:00,
2013-12-17 21:04:00,44.5,8.0,26.10,WNW,302,0.0,0.0,22,0.00,,---,0.00,VWS V12.07,2013-12-18 04:04:00,
2013-12-17 21:05:00,44.5,8.0,26.10,WNW,302,0.0,0.0,22,0.00,,---,0.00,VWS V12.07,2013-12-18 04:05:00,
2013-12-17 21:14:00,44.3,7.9,26.10,WNW,302,0.0,0.0,22,0.00,,---,0.00,VWS V12.07,2013-12-18 04:14:00,
2013-12-17 21:15:00,44.3,7.9,26.10,WNW,302,0.0,0.0,22,0.00,,---,0.00,VWS V12.07,2013-12-18 04:15:00,
2013-12-17 21:24:00,44.1,7.7,26.10,WNW,302,0.0,0.0,22,0.00,,---,0.00,VWS V12.07,2013-12-18 04:24:00,
2013-12-17 21:34:00,43.2,7.0,26.10,WNW,302,0.0,0.0,22,0.00,,---,0.00,VWS V12.07,2013-12-18 04:34:00,
2013-12-17 21:35:00,43.2,7.0,26.10,WNW,302,0.0,0.0,22,0.00,,---,0.00,VWS V12.07,2013-12-18 04:35:00,
2013-12-17 21:44:00,43.4,7.1,26.10,WNW,302,0.0,0.0,22,0.00,,---,0.00,VWS V12.07,2013-12-18 04:44:00,
2013-12-17 21:45:00,43.4,7.1,26.10,WNW,302,0.0,0.0,22,0.00,,---,0.00,VWS V12.07,2013-12-18 04:45:00,
2013-12-17 21:54:00,43.2,7.0,26.10,WNW,302,0.0,0.0,22,0.00,,---,0.00,VWS V12.07,2013-12-18 04:54:00,
2013-12-17 21:55:00,43.2,7.0,26.10,WNW,302,0.0,0.0,22,0.00,,---,0.00,VWS V12.07,2013-12-18 04:55:00,
2013-12-17 22:04:00,42.9,6.7,26.10,WNW,302,0.0,0.0,22,0.00,,---,0.00,VWS V12.07,2013-12-18 05:04:00,
2013-12-17 22:05:00,42.9,6.7,26.10,WNW,302,0.0,0.0,22,0.00,,---,0.00,VWS V12.07,2013-12-18 05:05:00,
2013-12-17 22:15:00,42.5,9.2,26.10,WNW,302,0.0,0.0,25,0.00,,---,0.00,VWS V12.07,2013-12-18 05:15:00,
2013-12-17 22:25:00,42.9,9.5,26.10,WNW,302,0.0,0.0,25,0.00,,---,0.00,VWS V12.07,2013-12-18 05:25:00,
2013-12-17 22:34:00,42.5,9.2,26.10,WNW,302,0.0,0.0,25,0.00,,---,0.00,VWS V12.07,2013-12-18 05:34:00,
2013-12-17 22:35:00,42.3,9.0,26.10,WNW,302,0.0,0.0,25,0.00,,---,0.00,VWS V12.07,2013-12-18 05:35:00,
2013-12-17 22:44:00,42.0,8.7,26.10,WNW,302,0.0,0.0,25,0.00,,---,0.00,VWS V12.07,2013-12-18 05:44:00,
2013-12-17 22:54:00,40.3,7.3,26.10,WNW,302,0.0,0.0,25,0.00,,---,0.00,VWS V12.07,2013-12-18 05:54:00,
2013-12-17 22:55:00,40.5,7.5,26.10,WNW,302,0.0,0.0,25,0.00,,---,0.00,VWS V12.07,2013-12-18 05:55:00,
2013-12-17 23:04:00,40.5,7.5,26.10,WNW,302,0.0,0.0,25,0.00,,---,0.00,VWS V12.07,2013-12-18 06:04:00,
2013-12-17 23:14:00,41.1,7.9,26.10,WNW,302,0.0,0.0,25,0.00,,---,0.00,VWS V12.07,2013-12-18 06:14:00,
2013-12-17 23:15:00,41.1,7.9,26.10,WNW,302,0.0,0.0,25,0.00,,---,0.00,VWS V12.07,2013-12-18 06:15:00,
2013-12-17 23:24:00,41.4,10.8,26.10,WNW,302,3.1,3.6,28,0.00,,---,0.00,VWS V12.07,2013-12-18 06:24:00,
2013-12-17 23:25:00,41.4,10.8,26.10,WNW,302,3.6,3.6,28,0.00,,---,0.00,VWS V12.07,2013-12-18 06:25:00,
2013-12-17 23:34:00,41.2,10.6,26.10,WNW,302,3.1,4.9,28,0.00,,---,0.00,VWS V12.07,2013-12-18 06:34:00,
2013-12-17 23:44:00,40.9,10.3,26.10,NW,311,4.0,5.4,28,0.00,,---,0.00,VWS V12.07,2013-12-18 06:44:00,
2013-12-17 23:45:00,40.9,10.3,26.10,NW,311,4.0,5.4,28,0.00,,---,0.00,VWS V12.07,2013-12-18 06:45:00,
2013-12-17 23:54:00,40.7,10.1,26.10,NW,319,2.7,5.8,28,0.00,,---,0.00,VWS V12.07,2013-12-18 06:54:00,
2013-12-17 23:55:00,40.7,10.1,26.10,NW,319,2.7,5.8,28,0.00,,---,0.00,VWS V12.07,2013-12-18 06:55:00,